TimeEST,TemperatureF,Dew PointF,Humidity,Sea Level PressureIn,VisibilityMPH,Wind Direction,Wind SpeedMPH,Gust SpeedMPH,PrecipitationIn,Events,Conditions,WindDirDegrees,DateUTC
12:15 AM,41.9,41.0,97,29.91,5.0,WNW,4.6,-,N/A,,Overcast,300,2014-01-16 05:15:00
12:35 AM,41.9,40.8,96,29.92,5.0,NW,5.8,-,N/A,,Overcast,310,2014-01-16 05:35:00
12:55 AM,42.1,39.4,90,29.91,7.0,NNE,4.6,-,N/A,,Light Drizzle,30,2014-01-16 05:55:00
1:15 AM,42.4,38.8,87,29.91,10.0,North,3.5,-,N/A,,Overcast,350,2014-01-16 06:15:00
1:35 AM,42.4,39.4,89,29.91,10.0,NW,4.6,-,N/A,,Overcast,320,2014-01-16 06:35:00
1:55 AM,42.6,38.3,85,29.92,10.0,NW,4.6,-,N/A,,Overcast,320,2014-01-16 06:55:00
2:15 AM,42.4,37.6,83,29.92,10.0,NW,5.8,-,N/A,,Overcast,310,2014-01-16 07:15:00
2:35 AM,42.3,34.5,74,29.91,10.0,NNW,5.8,-,N/A,,Overcast,330,2014-01-16 07:35:00
2:55 AM,42.1,33.6,72,29.91,10.0,NNW,9.2,-,N/A,,Overcast,330,2014-01-16 07:55:00
3:15 AM,41.9,32.9,70,29.91,10.0,NNW,9.2,-,N/A,,Overcast,340,2014-01-16 08:15:00
3:35 AM,41.4,32.9,72,29.91,10.0,NNW,5.8,-,N/A,,Overcast,330,2014-01-16 08:35:00
3:55 AM,41.2,32.9,72,29.90,10.0,NNW,4.6,-,N/A,,Overcast,340,2014-01-16 08:55:00
4:15 AM,41.0,33.1,73,29.89,10.0,NW,4.6,-,N/A,,Overcast,320,2014-01-16 09:15:00
4:35 AM,40.5,33.1,75,29.90,10.0,NW,6.9,-,N/A,,Overcast,310,2014-01-16 09:35:00
4:55 AM,40.5,32.4,73,29.91,10.0,NW,4.6,-,N/A,,Overcast,320,2014-01-16 09:55:00
5:15 AM,40.5,32.2,72,29.90,10.0,NNW,6.9,-,N/A,,Overcast,330,2014-01-16 10:15:00
5:35 AM,40.3,32.7,74,29.93,10.0,WNW,5.8,-,N/A,,Overcast,290,2014-01-16 10:35:00
5:55 AM,40.1,32.9,75,29.92,10.0,NW,6.9,-,N/A,,Overcast,310,2014-01-16 10:55:00
6:15 AM,40.1,32.9,75,29.90,10.0,NNW,3.5,-,N/A,,Overcast,330,2014-01-16 11:15:00
6:35 AM,40.1,32.5,74,29.89,10.0,NW,6.9,-,N/A,,Overcast,310,2014-01-16 11:35:00
6:55 AM,40.1,32.7,75,29.91,10.0,NW,5.8,-,N/A,,Overcast,310,2014-01-16 11:55:00
7:15 AM,40.1,32.7,75,29.92,10.0,NNW,5.8,-,N/A,,Overcast,340,2014-01-16 12:15:00
7:35 AM,39.9,32.9,76,29.92,10.0,NNW,8.1,-,N/A,,Overcast,330,2014-01-16 12:35:00
7:55 AM,40.1,33.1,76,29.92,10.0,NNW,5.8,-,N/A,,Overcast,340,2014-01-16 12:55:00
8:15 AM,40.1,33.4,77,29.91,10.0,NNE,5.8,-,N/A,,Overcast,20,2014-01-16 13:15:00
8:35 AM,40.3,33.6,77,29.94,10.0,North,6.9,-,N/A,,Overcast,360,2014-01-16 13:35:00
8:55 AM,40.3,33.4,77,29.94,10.0,North,3.5,-,N/A,,Overcast,10,2014-01-16 13:55:00
9:15 AM,40.3,33.8,78,29.96,10.0,North,6.9,-,N/A,,Light Drizzle,360,2014-01-16 14:15:00
9:35 AM,40.1,34.0,79,29.96,10.0,North,5.8,-,N/A,Rain,Light Rain,10,2014-01-16 14:35:00
9:55 AM,39.7,34.3,81,29.96,10.0,NW,6.9,-,N/A,,Overcast,320,2014-01-16 14:55:00
10:15 AM,40.1,34.5,80,29.95,10.0,NNW,4.6,-,N/A,,Overcast,330,2014-01-16 15:15:00
10:35 AM,40.3,34.7,80,29.96,10.0,NW,5.8,-,N/A,,Overcast,320,2014-01-16 15:35:00
10:55 AM,40.6,34.9,80,29.94,10.0,NNW,4.6,-,N/A,,Overcast,330,2014-01-16 15:55:00
11:15 AM,41.0,34.9,79,29.95,10.0,NNW,6.9,-,N/A,,Overcast,330,2014-01-16 16:15:00
11:35 AM,41.0,33.8,76,29.93,10.0,North,8.1,-,N/A,,Overcast,350,2014-01-16 16:35:00
11:55 AM,41.4,33.8,74,29.92,10.0,North,5.8,-,N/A,,Overcast,360,2014-01-16 16:55:00
12:15 PM,41.2,33.8,75,29.91,10.0,NNE,4.6,-,N/A,,Overcast,20,2014-01-16 17:15:00
12:35 PM,41.4,34.0,75,29.88,10.0,North,4.6,-,N/A,,Overcast,350,2014-01-16 17:35:00
12:55 PM,41.9,34.5,75,29.87,10.0,North,5.8,-,N/A,,Overcast,350,2014-01-16 17:55:00
1:15 PM,41.2,33.8,75,29.89,10.0,NW,4.6,-,N/A,,Overcast,310,2014-01-16 18:15:00
1:35 PM,41.5,33.8,74,29.90,10.0,NNW,6.9,-,N/A,,Overcast,330,2014-01-16 18:35:00
1:55 PM,41.9,34.0,73,29.88,10.0,NW,4.6,-,N/A,,Overcast,320,2014-01-16 18:55:00
2:15 PM,41.4,33.8,74,29.88,10.0,Calm,Calm,-,N/A,,Overcast,0,2014-01-16 19:15:00
2:35 PM,41.7,33.8,73,29.88,10.0,NNW,4.6,-,N/A,,Overcast,340,2014-01-16 19:35:00
2:55 PM,42.1,33.3,71,29.88,10.0,NNE,3.5,-,N/A,,Overcast,20,2014-01-16 19:55:00
3:35 PM,41.9,33.4,72,29.89,10.0,NNE,3.5,-,N/A,,Overcast,30,2014-01-16 20:35:00
3:55 PM,41.5,33.3,72,29.90,10.0,NE,3.5,-,N/A,,Overcast,40,2014-01-16 20:55:00
4:15 PM,41.4,33.1,72,29.89,10.0,NNE,4.6,-,N/A,,Overcast,20,2014-01-16 21:15:00
4:35 PM,41.0,32.9,73,29.90,10.0,NE,4.6,-,N/A,,Overcast,40,2014-01-16 21:35:00
4:55 PM,41.0,32.5,72,29.91,10.0,NNE,3.5,-,N/A,,Overcast,30,2014-01-16 21:55:00
5:15 PM,40.8,32.7,73,29.91,10.0,NNE,3.5,-,N/A,,Overcast,20,2014-01-16 22:15:00
5:35 PM,40.3,32.9,75,29.91,10.0,NW,5.8,-,N/A,,Overcast,320,2014-01-16 22:35:00
5:55 PM,40.1,32.4,74,29.91,10.0,North,4.6,-,N/A,,Overcast,360,2014-01-16 22:55:00
6:15 PM,40.1,31.1,70,29.92,10.0,North,5.8,-,N/A,,Overcast,10,2014-01-16 23:15:00
6:35 PM,39.6,30.9,71,29.92,10.0,North,4.6,-,N/A,,Overcast,10,2014-01-16 23:35:00
6:55 PM,39.4,30.7,71,29.93,10.0,North,5.8,-,N/A,,Overcast,350,2014-01-16 23:55:00
7:15 PM,39.4,30.6,71,29.93,10.0,NNW,6.9,-,N/A,,Overcast,330,2014-01-17 00:15:00
7:35 PM,39.2,30.9,72,29.95,10.0,NW,4.6,-,N/A,,Overcast,310,2014-01-17 00:35:00
7:55 PM,39.0,31.8,75,29.95,10.0,NW,3.5,-,N/A,,Overcast,320,2014-01-17 00:55:00
8:15 PM,38.8,32.0,76,29.96,10.0,NNW,4.6,-,N/A,,Overcast,330,2014-01-17 01:15:00
8:35 PM,38.7,32.0,77,29.96,10.0,NW,3.5,-,N/A,,Overcast,320,2014-01-17 01:35:00
8:55 PM,38.7,31.8,76,29.97,10.0,Calm,Calm,-,N/A,,Overcast,0,2014-01-17 01:55:00
9:15 PM,38.7,31.8,76,29.97,10.0,Calm,Calm,-,N/A,,Overcast,0,2014-01-17 02:15:00
9:35 PM,38.3,32.0,78,29.97,10.0,Calm,Calm,-,N/A,,Overcast,0,2014-01-17 02:35:00
9:55 PM,37.6,32.0,80,29.98,10.0,NW,3.5,-,N/A,,Overcast,310,2014-01-17 02:55:00
10:15 PM,38.1,32.0,79,29.98,10.0,WNW,3.5,-,N/A,,Overcast,290,2014-01-17 03:15:00
10:35 PM,37.4,31.8,80,29.97,10.0,WNW,3.5,-,N/A,,Mostly Cloudy,290,2014-01-17 03:35:00
10:55 PM,37.4,31.8,80,29.98,10.0,WNW,3.5,-,N/A,,Mostly Cloudy,300,2014-01-17 03:55:00
11:15 PM,36.5,31.5,82,29.97,10.0,WNW,3.5,-,N/A,,Scattered Clouds,290,2014-01-17 04:15:00
11:35 PM,36.5,31.6,83,29.98,10.0,West,3.5,-,N/A,,Clear,270,2014-01-17 04:35:00
11:55 PM,36.5,32.0,84,29.97,10.0,West,4.6,-,N/A,,Clear,270,2014-01-17 04:55:00